| time (UTC) | temp C | wind direction | speed KPH | gust KPH | rain 1hr cm | rain 24hr cm | rain mn cm | humidity % | barometer mb |
| 20260902034545 | 16 | 211 | 4.8 | 17.7 | 0.00 | 0.00 | 0.00 | 75 | 1017.0 |
| 20260902033102 | 16 | 197 | 3.2 | 16.1 | 0.00 | 0.00 | 0.00 | 74 | 1017.0 |
| 20260902031545 | 17 | 261 | 8.0 | 27.4 | 0.00 | 0.00 | 0.00 | 74 | 1017.0 |
| 20260902030059 | 17 | 228 | 6.4 | 17.7 | 0.00 | 0.00 | 0.00 | 73 | 1016.9 |
| 20260902024503 | 17 | 230 | 11.3 | 22.5 | 0.00 | 0.00 | 0.00 | 73 | 1017.0 |
| 20260902023012 | 17 | 360 | 9.7 | 22.5 | 0.00 | 0.00 | 0.00 | 72 | 1016.7 |
| 20260902021524 | 17 | 360 | 12.9 | 25.7 | 0.00 | 0.00 | 0.00 | 70 | 1016.6 |
| 20260902020024 | 17 | 286 | 4.8 | 30.6 | 0.00 | 0.00 | 0.00 | 66 | 1016.4 |
| 20260902014533 | 18 | 289 | 12.9 | 22.5 | 0.00 | 0.00 | 0.00 | 62 | 1016.5 |
| 20260902013027 | 18 | 255 | 9.7 | 25.7 | 0.00 | 0.00 | 0.00 | 60 | 1016.3 |
| 20260902011517 | 19 | 245 | 14.5 | 24.1 | 0.00 | 0.00 | 0.00 | 59 | 1016.3 |
| 20260902010027 | 19 | 285 | 12.9 | 30.6 | 0.00 | 0.00 | 0.00 | 59 | 1016.2 |
| 20260902004525 | 19 | 252 | 11.3 | 22.5 | 0.00 | 0.00 | 0.00 | 59 | 1016.3 |
| 20260902003017 | 19 | 288 | 11.3 | 25.7 | 0.00 | 0.00 | 0.00 | 58 | 1016.1 |
| 20260902001514 | 20 | 284 | 12.9 | 27.4 | 0.00 | 0.00 | 0.00 | 57 | 1016.2 |
| 20260902000024 | 20 | 265 | 11.3 | 27.4 | 0.00 | 0.00 | 0.00 | 57 | 1016.3 |
| 20260901234506 | 20 | 266 | 12.9 | 30.6 | 0.00 | 0.00 | 0.00 | 55 | 1016.3 |
| 20260901233016 | 21 | 282 | 9.7 | 24.1 | 0.00 | 0.00 | 0.00 | 54 | 1016.2 |
| 20260901231538 | 20 | 239 | 6.4 | 25.7 | 0.00 | 0.00 | 0.00 | 54 | 1016.3 |
| 20260901230050 | 21 | 245 | 4.8 | 24.1 | 0.00 | 0.00 | 0.00 | 52 | 1016.3 |
| 20260901224601 | 21 | 250 | 14.5 | 24.1 | 0.00 | 0.00 | 0.00 | 52 | 1016.3 |
| 20260901223001 | 21 | 277 | 12.9 | 22.5 | 0.00 | 0.00 | 0.00 | 51 | 1016.4 |
| 20260901221617 | 22 | 273 | 6.4 | 17.7 | 0.00 | 0.00 | 0.00 | 50 | 1016.5 |
| 20260901220044 | 21 | 259 | 8.0 | 29.0 | 0.00 | 0.00 | 0.00 | 51 | 1016.6 |
| 20260901214546 | 20 | 244 | 8.0 | 20.9 | 0.00 | 0.00 | 0.00 | 53 | 1016.8 |
| 20260901213105 | 20 | 360 | 3.2 | 17.7 | 0.00 | 0.00 | 0.00 | 54 | 1016.8 |
| 20260901211552 | 20 | 264 | 11.3 | 22.5 | 0.00 | 0.00 | 0.00 | 55 | 1016.9 |
| 20260901210016 | 20 | 360 | 6.4 | 22.5 | 0.00 | 0.00 | 0.00 | 58 | 1016.9 |
| 20260901204528 | 20 | 360 | 9.7 | 25.7 | 0.00 | 0.00 | 0.00 | 56 | 1017.0 |
| 20260901203041 | 21 | 360 | 4.8 | 19.3 | 0.00 | 0.00 | 0.00 | 54 | 1016.9 |
| 20260901201533 | 21 | 360 | 11.3 | 25.7 | 0.00 | 0.00 | 0.00 | 55 | 1017.0 |
| 20260901200043 | 20 | 240 | 6.4 | 20.9 | 0.00 | 0.00 | 0.00 | 54 | 1017.0 |
| 20260901194534 | 20 | 258 | 8.0 | 16.1 | 0.00 | 0.00 | 0.00 | 54 | 1017.1 |
| 20260901193051 | 20 | 285 | 4.8 | 17.7 | 0.00 | 0.00 | 0.00 | 54 | 1017.0 |
| 20260901191538 | 20 | 360 | 8.0 | 22.5 | 0.00 | 0.00 | 0.00 | 54 | 1017.2 |
| 20260901190047 | 20 | 360 | 4.8 | 19.3 | 0.00 | 0.00 | 0.00 | 54 | 1017.2 |
| 20260901184547 | 20 | 238 | 3.2 | 19.3 | 0.00 | 0.00 | 0.00 | 53 | 1017.2 |
| 20260901183040 | 20 | 343 | 4.8 | 20.9 | 0.00 | 0.00 | 0.00 | 55 | 1017.1 |
| 20260901181540 | 19 | 244 | 9.7 | 22.5 | 0.00 | 0.00 | 0.00 | 57 | 1017.1 |
| 20260901180042 | 19 | 244 | 11.3 | 24.1 | 0.00 | 0.00 | 0.00 | 59 | 1017.2 |
| 20260901174542 | 19 | 281 | 12.9 | 22.5 | 0.00 | 0.00 | 0.00 | 58 | 1016.9 |
| 20260901173053 | 18 | 275 | 9.7 | 25.7 | 0.00 | 0.00 | 0.00 | 62 | 1016.8 |
| 20260901171500 | 18 | 269 | 4.8 | 17.7 | 0.00 | 0.00 | 0.00 | 65 | 1017.0 |
| 20260901170010 | 18 | 259 | 4.8 | 17.7 | 0.00 | 0.00 | 0.00 | 64 | 1016.6 |
| 20260901164522 | 18 | 271 | 9.7 | 20.9 | 0.00 | 0.00 | 0.00 | 65 | 1016.7 |
| 20260901163023 | 18 | 254 | 14.5 | 22.5 | 0.00 | 0.00 | 0.00 | 64 | 1016.7 |
| 20260901161528 | 17 | 272 | 12.9 | 22.5 | 0.00 | 0.00 | 0.00 | 67 | 1016.7 |
| 20260901160033 | 17 | 267 | 3.2 | 14.5 | 0.00 | 0.00 | 0.00 | 69 | 1016.5 |
| 20260901154527 | 17 | 360 | 8.0 | 16.1 | 0.00 | 0.00 | 0.00 | 70 | 1016.2 |
| 20260901153021 | 17 | 360 | 11.3 | 20.9 | 0.00 | 0.00 | 0.00 | 69 | 1016.4 |
| 20260901151519 | 17 | 360 | 4.8 | 16.1 | 0.00 | 0.00 | 0.00 | 72 | 1016.1 |
| 20260901150031 | 16 | 360 | 3.2 | 14.5 | 0.00 | 0.00 | 0.00 | 74 | 1016.0 |
| 20260901144541 | 16 | 360 | 3.2 | 14.5 | 0.00 | 0.00 | 0.00 | 75 | 1015.8 |
| 20260901143054 | 16 | 360 | 1.6 | 9.7 | 0.00 | 0.00 | 0.00 | 74 | 1015.7 |
| 20260901141501 | 16 | 360 | 0.0 | 4.8 | 0.00 | 0.00 | 0.00 | 74 | 1015.4 |
| 20260901140054 | 16 | 360 | 0.0 | 6.4 | 0.00 | 0.00 | 0.00 | 74 | 1015.2 |
| 20260901134601 | 16 | 360 | 0.0 | 6.4 | 0.00 | 0.00 | 0.00 | 73 | 1015.1 |
| 20260901133055 | 16 | 360 | 0.0 | 14.5 | 0.00 | 0.00 | 0.00 | 73 | 1015.0 |
| 20260901131515 | 16 | 360 | 1.6 | 4.8 | 0.00 | 0.00 | 0.00 | 75 | 1014.8 |
| 20260901130017 | 16 | 360 | 0.0 | 8.0 | 0.00 | 0.00 | 0.00 | 74 | 1014.6 |
| 20260901124528 | 15 | 360 | 3.2 | 8.0 | 0.00 | 0.00 | 0.00 | 75 | 1014.5 |
| 20260901123029 | 15 | 360 | 1.6 | 6.4 | 0.00 | 0.00 | 0.00 | 77 | 1014.5 |
| 20260901121535 | 16 | 360 | 4.8 | 12.9 | 0.00 | 0.00 | 0.00 | 77 | 1014.4 |
| 20260901120041 | 16 | 360 | 0.0 | 4.8 | 0.00 | 0.00 | 0.00 | 78 | 1014.3 |
| 20260901114534 | 16 | 360 | 1.6 | 8.0 | 0.00 | 0.00 | 0.00 | 77 | 1014.4 |
| 20260901113035 | 16 | 360 | 1.6 | 12.9 | 0.00 | 0.00 | 0.00 | 77 | 1014.5 |
| 20260901111537 | 16 | 360 | 3.2 | 8.0 | 0.00 | 0.00 | 0.00 | 76 | 1014.6 |
| 20260901110037 | 16 | 360 | 3.2 | 12.9 | 0.00 | 0.00 | 0.00 | 76 | 1014.5 |
| 20260901104532 | 16 | 360 | 4.8 | 20.9 | 0.00 | 0.00 | 0.00 | 76 | 1014.4 |
| 20260901103032 | 16 | 360 | 6.4 | 20.9 | 0.00 | 0.00 | 0.00 | 76 | 1014.3 |
| 20260901101542 | 16 | 360 | 4.8 | 12.9 | 0.00 | 0.00 | 0.00 | 76 | 1014.2 |
| 20260901100054 | 16 | 360 | 6.4 | 17.7 | 0.00 | 0.00 | 0.00 | 74 | 1014.1 |
| 20260901094510 | 16 | 360 | 3.2 | 14.5 | 0.00 | 0.00 | 0.00 | 73 | 1014.3 |
| 20260901093014 | 16 | 360 | 0.0 | 9.7 | 0.00 | 0.00 | 0.00 | 73 | 1014.5 |
| 20260901091506 | 16 | 360 | 3.2 | 16.1 | 0.00 | 0.00 | 0.00 | 73 | 1014.5 |
| 20260901090009 | 16 | 360 | 6.4 | 14.5 | 0.00 | 0.00 | 0.00 | 74 | 1014.5 |
| 20260901084507 | 16 | 360 | 1.6 | 14.5 | 0.00 | 0.00 | 0.00 | 75 | 1014.3 |
| 20260901083020 | 16 | 360 | 9.7 | 20.9 | 0.00 | 0.00 | 0.00 | 75 | 1014.5 |
| 20260901081508 | 16 | 360 | 8.0 | 19.3 | 0.00 | 0.00 | 0.00 | 75 | 1014.4 |
| 20260901074510 | 16 | 360 | 3.2 | 19.3 | 0.00 | 0.00 | 0.00 | 74 | 1014.1 |
| 20260901073022 | 15 | 360 | 4.8 | 20.9 | 0.00 | 0.00 | 0.00 | 74 | 1014.2 |
| 20260901071529 | 16 | 360 | 3.2 | 20.9 | 0.00 | 0.00 | 0.00 | 74 | 1014.1 |
| 20260901070040 | 16 | 360 | 4.8 | 17.7 | 0.00 | 0.00 | 0.00 | 74 | 1014.1 |
| 20260901064549 | 16 | 360 | 3.2 | 12.9 | 0.00 | 0.00 | 0.00 | 73 | 1014.2 |
| 20260901063051 | 15 | 360 | 4.8 | 12.9 | 0.00 | 0.00 | 0.00 | 73 | 1014.4 |
| 20260901061544 | 15 | 360 | 3.2 | 9.7 | 0.00 | 0.00 | 0.00 | 73 | 1014.3 |
| 20260901060037 | 15 | 360 | 0.0 | 8.0 | 0.00 | 0.00 | 0.00 | 73 | 1014.4 |
| 20260901054545 | 15 | 360 | 4.8 | 14.5 | 0.00 | 0.00 | 0.00 | 73 | 1014.5 |
| 20260901053046 | 15 | 360 | 4.8 | 19.3 | 0.00 | 0.00 | 0.00 | 74 | 1014.6 |
| 20260901051547 | 15 | 360 | 6.4 | 12.9 | 0.00 | 0.00 | 0.00 | 74 | 1014.5 |
| 20260901050048 | 15 | 360 | 4.8 | 16.1 | 0.00 | 0.00 | 0.00 | 74 | 1014.5 |
| 20260901044550 | 15 | 360 | 8.0 | 17.7 | 0.00 | 0.00 | 0.00 | 73 | 1014.3 |
| 20260901043050 | 16 | 360 | 11.3 | 27.4 | 0.00 | 0.00 | 0.00 | 72 | 1014.4 |
| 20260901041555 | 16 | 360 | 4.8 | 17.7 | 0.00 | 0.00 | 0.00 | 72 | 1014.3 |
| 20260901040043 | 16 | 360 | 9.7 | 24.1 | 0.00 | 0.00 | 0.00 | 72 | 1014.2 |
| 20260901034600 | 16 | 360 | 6.4 | 17.7 | 0.00 | 0.00 | 0.00 | 73 | 1014.0 |